User: anonymous   Login
Location: Unspecified
(51.0950°N, 12.9690°E)
Time: 17:47:07
(UTC+00:00)
Language:

STSAT 3 - Orbit

View from above orbital plane
View from above orbital plane
View from above satellite
View from above satellite

Ground track
Ground track

The orbit data is extracted from the following two-line orbital elements,

1 39422U 13066G   22223.19898517  .00000976  00000-0  10454-3 0  9994
2 39422  97.4713 225.4051 0024165  98.5749 261.8201 14.90602188473993
Epoch (UTC): 11 August 2022 04:46:32
Eccentricity: 0.0024165
inclination: 97.4713°
perigee height: 579 km
apogee height: 613 km
right ascension of ascending node: 225.4051°
argument of perigee: 98.5749°
revolutions per day: 14.90602188
mean anomaly at epoch: 261.8201°
orbit number at epoch: 47399

The dashed part of the orbit path shows where the satellite is in the earth's shadow,  

DLR